Regional Weather Roundup
Issued by NWS

Home | Current Version | Previous Version | Graphics & Text | Print | Product List | Glossary Off
Versions: 1 2 3 4 5 6 7 8 9 10 11 12 13 14 15 16 17 18 19 20 21 22 23 24 25 26 27 28 29 30 31 32 33 34 35 36 37 38 39 40 41 42 43 44 45 46 47 48 49 50

561
ASUS43 KMKX 200600
RWRWI

WISCONSIN REGIONAL WEATHER ROUNDUP
NATIONAL WEATHER SERVICE MILWAUKEE/SULLIVAN WI
100 AM CDT WED SEP 20 2017

NOTE: "FAIR" INDICATES FEW OR NO CLOUDS BELOW 12,000 FEET WITH NO
SIGNIFICANT WEATHER AND/OR OBSTRUCTIONS TO VISIBILITY.

WIZ001-002-006>008-014>016-023>028-200700-
NORTHWEST WISCONSIN

CITY           SKY/WX    TMP DP  RH WIND       PRES   REMARKS
SUPERIOR ARPT  CLOUDY    62  59  90 NE7       29.71F
ASHLAND        PTCLDY    64  57  78 SE9       29.80R
6HR MIN TEMP:  55; 6HR MAX TEMP:  66;

HAYWARD        CLOUDY    65  58  78 SE10G20   29.79R
6HR MIN TEMP:  65; 6HR MAX TEMP:  70;

SIREN          CLOUDY    68  56  65 SE12      29.72R
CUMBERLAND     CLOUDY    63  55  77 SE12      29.75S
RICE LAKE      CLOUDY    65  59  79 SE14      29.77S
CHETEK         CLOUDY    65  61  85 SE12G23   29.77S
LADYSMITH      CLEAR     65  59  82 SE12G17   29.83S
EAU CLAIRE     PTCLDY    66  59  78 SE10      29.77R
6HR MIN TEMP:  66; 6HR MAX TEMP:  74;

MENOMONIE      MOCLDY    67  61  80 SE8       29.76R
NEW RICHMOND   NOT AVBL
OSCEOLA        CLOUDY    69  62  77 SE13      29.72S
$$

WIZ003>005-009-010-017-018-200700-
NORTH CENTRAL WISCONSIN

CITY           SKY/WX    TMP DP  RH WIND       PRES   REMARKS
MANITOWISH WTR CLEAR     58  56  94 SE10      29.88F
ARBOR VITAE    CLEAR     59  55  84 SE8       29.90R
WOODRUFF       CLEAR     59  55  84 SE8       29.90R
RHINELANDER    PTCLDY    57  54  89 SE9       29.92R
6HR MIN TEMP:  56; 6HR MAX TEMP:  66;

EAGLE RIVER    CLEAR     56  48  74 SE3       29.91S
LAND O LAKES   CLOUDY    56  50  81 SE6       29.92S
PHILLIPS       CLOUDY    60  57  90 SE12      29.85S
TOMAHAWK         N/A     57  53  85 SE3       29.90R
MEDFORD        CLOUDY    60  58  92 SE10      29.86S
MERRILL        NOT AVBL
$$

WIZ029-030-035-036-043>047-200700-
CENTRAL WISCONSIN

CITY           SKY/WX    TMP DP  RH WIND       PRES   REMARKS
WAUSAU         CLOUDY    61  59  93 SE12      29.88S
6HR MIN TEMP:  60; 6HR MAX TEMP:  66;

MOSINEE        CLOUDY    61  59  94 SE8       29.90S FOG
MARSHFIELD     CLEAR     62  58  86 SE10      29.86S
6HR MIN TEMP:  61; 6HR MAX TEMP:  69;

STEVENS POINT  CLOUDY    60  60 100 SE9       29.90S FOG
WAUPACA        PTCLDY    61  60  96 SE3       29.92S
WAUTOMA        CLOUDY    61  61 100 SE5       29.90F FOG
6HR MIN TEMP:  61; 6HR MAX TEMP:  71;

WISC RAPIDS    CLEAR     63  60  90 SE9       29.89R
6HR MIN TEMP:  62; 6HR MAX TEMP:  72;

CAMP DOUGLAS   NOT AVBL
$$

WIZ011>013-019>022-031-037>040-048>050-200700-
NORTHEAST WISCONSIN

CITY           SKY/WX    TMP DP  RH WIND       PRES   REMARKS
ANTIGO         CLOUDY    56  54  90 SE9       29.93S
SHAWANO        CLEAR     59  55  85 CALM      29.91F
OCONTO         PTCLDY    53  52  98 CALM      29.91F
STURGEON BAY   CLEAR     62  60  93 S7        29.93S
6HR MIN TEMP:  61; 6HR MAX TEMP:  62;

GREEN BAY      CLEAR     56  56 100 CALM      29.92S
6HR MIN TEMP:  56; 6HR MAX TEMP:  67;

MANITOWOC      CLEAR     55  55 100 CALM      29.92F FOG
APPLETON       CLEAR     59  59 100 SE7       29.89F
CLINTONVILLE   CLEAR     55  54  94 CALM      29.91S
OSHKOSH        CLEAR     59  58  96 S5        29.91S
6HR MIN TEMP:  59; 6HR MAX TEMP:  68;

$$

WIZ032>034-041-042-053>061-200700-
SOUTHWEST WISCONSIN

CITY           SKY/WX    TMP DP  RH WIND       PRES   REMARKS
LA CROSSE      CLEAR     72  64  76 SE15G23   29.76F
6HR MIN TEMP:  71; 6HR MAX TEMP:  77;

SPARTA         CLEAR     68  63  82 SE12G22   29.82S
VIROQUA        CLEAR     65  65  97 SE14G21   29.81F
BOSCOBEL       CLEAR     69  64  84 VRB7      29.82F
6HR MIN TEMP:  65; 6HR MAX TEMP:  78;

PRAIRIE DU CHI CLEAR     67  62  81 E9        29.79F
PLATTEVILLE    CLEAR     64  64 100 E8        29.86F
$$

WIZ056-057-062-063-064-067-068-200700-
SOUTH CENTRAL WISCONSIN

CITY           SKY/WX    TMP DP  RH WIND       PRES   REMARKS
REEDSBURG      CLEAR     65  62  90 SE5       29.87S
BARABOO/DELLS  CLEAR     64  60  84 SE9       29.88F
LONE ROCK      NOT AVBL
MINERAL POINT  CLEAR     66  64  94 SE10      29.87F
MADISON        CLEAR     64  61  90 MISG      29.89F
6HR MIN TEMP:  64; 6HR MAX TEMP:  74;

MIDDLETON      CLEAR     65  62  88 SE8       29.89F
WATERTOWN      CLEAR     59  59 100 E5        29.91S FOG
MONROE         CLEAR     63  61  94 SE10      29.89F
JANESVILLE     CLEAR     61  61 100 SE5       29.90F FOG
$$

WIZ051-052-058>065-066-070>072-200700-
SOUTHEAST WISCONSIN

CITY           SKY/WX    TMP DP  RH WIND       PRES   REMARKS
MILWAUKEE      CLEAR     63  62  97 CALM      29.91F FOG
6HR MIN TEMP:  61; 6HR MAX TEMP:  67;

WAUKESHA       FOG       61  59  94 SE5       29.94S VSB 1
MILWAUKEE/TIMM CLEAR     61  57  88 CALM      29.93F FOG
RACINE         CLEAR     62  62 100 SE5       29.93F FOG
6HR MIN TEMP:  59; 6HR MAX TEMP:  67;

BURLINGTON     CLOUDY    62  62 100 CALM      29.93S FOG
KENOSHA        FOG       60  59  96 CALM      29.93S VSB 1/4
6HR MIN TEMP:  59; 6HR MAX TEMP:  67;

FOND DU LAC    MOCLDY    61  58  90 SE7       29.91S
6HR MIN TEMP:  60; 6HR MAX TEMP:  66;

SHEBOYGAN      FOG       54  54 100 CALM      29.91F VSB 1/2
6HR MIN TEMP:  53; 6HR MAX TEMP:  63;

WEST BEND        N/A     55  55 100 CALM      29.93F
JUNEAU         CLEAR     60  59  96 SE5       29.92S FOG
$$

LSZ147-162-200700-
LAKE SUPERIOR

STATION/POSITION TIME  TEMP    WIND        PRES    WAVE
                       AIR SEA DIR/SP/G            HT/PER
                 (UTC) (F)     (DEG/KT/KT) (MB)    (FT/S)
W MID LAKE BUOY  0450   60 55  120/ 14/ 16 1010.1R   2/ 4
DEVILS ISLAND    0500   62     110/  8/ 10 1009.1S
SAXON HARBOR     0540   66     170/  6/ 12 1008.1F
$$

LMZ867-665-643>646-200700-
LAKE MICHIGAN

STATION/POSITION TIME  TEMP    WIND        PRES    WAVE
                       AIR SEA DIR/SP/G            HT/PER
                 (UTC) (F)     (DEG/KT/KT) (MB)    (FT/S)
S GREEN BAY BUOY 0500   64 66  120/  8/ 10 1013.0
N MID LAKE BUOY  0450   65 65  130/ 12/ 14 1014.2F   2/ 3
NORTHPORT PIER   0540   66     160/  8/ 10 1013.2S
KEWAUNEE LAKESHO 0524   61     130/  2/  3 1012.5
SHEBOYGAN LAKESH 0500   66     120/ 10/ 10 1013.2F
PORT WASHINGTON  0540   67     140/  4/  7 1014.2S
ATWATER BUOY     0439   67 68  120/ 10/ 12 1013.5F
MILWAUKEE LAKESH 0530   67     120/  6/  7   N/A
S MID LAKE BUOY  0450   69 69   90/ 10/ 12 1013.4F   1
KENOSHA   LAKESH 0500   67     110/  6/  7 1013.2
$$

TC  - TEMPERATURE IN CELSIUS
VSB - VISIBILITY IN STATUTE MILES
WCI - WIND CHILL INDEX
HX  - HEAT INDEX





USA.gov is the U.S. government's official web portal to all federal, state and local government web resources and services.